Location: Fisheating Creek Campgrounds
(26.9333°N, 81.3167°W)
Time: 23:37:03
(UTC-04:00)

Cosmos 2221 Rocket - Visible Passes

Search period start: 01 July 2015 00:00
Search period end: 11 July 2015 00:00
Orbit: 620 x 649 km, 82.5° (Epoch: 01 July)

Date Brightness Start Highest point End Pass type
(mag) Time Alt. Az. Time Alt. Az. Time Alt. Az.
01 Jul 5.2 21:48:18 10° NNE 21:51:23 19° ENE 21:51:23 19° ENE visible
01 Jul 5.6 23:25:54 10° NW 23:28:54 24° WNW 23:28:54 24° WNW visible
02 Jul 4.1 22:09:40 10° N 22:13:57 43° E 22:13:57 43° E visible
02 Jul 6.5 23:51:04 10° WNW 23:51:27 10° W 23:51:27 10° W visible
03 Jul 3.6 22:31:50 10° N 22:36:21 76° W 22:36:33 74° WSW visible
04 Jul 5.4 21:17:50 10° NE 21:20:20 15° ENE 21:21:39 14° E visible
04 Jul 5.1 22:54:38 10° NNW 22:58:39 31° W 22:59:09 30° WSW visible
05 Jul 4.4 21:38:51 10° NNE 21:42:57 34° E 21:44:18 28° ESE visible
05 Jul 6.2 23:18:37 10° WNW 23:20:55 13° W 23:21:48 12° WSW visible
06 Jul 3.5 22:00:50 10° N 22:05:23 84° E 22:06:58 41° S visible
07 Jul 5.6 20:47:41 10° NE 20:49:15 12° ENE 20:51:07 10° E visible
07 Jul 4.8 22:23:27 10° NNW 22:27:41 39° W 22:29:41 25° SW visible
08 Jul 4.7 21:08:05 10° NNE 21:11:55 27° E 21:14:55 15° SE visible
08 Jul 6.1 22:46:57 10° NW 22:49:57 17° W 22:52:26 11° SW visible
09 Jul 3.6 21:29:53 10° N 21:34:24 66° E 21:37:43 18° SSE visible
10 Jul 4.4 21:52:19 10° NNW 21:56:43 50° W 22:00:33 13° SSW visible
